Location: An Tulaigh
(53.1928°N, 8.1647°W)
Time: 03:08:20
(UTC+00:00)

Cosmos 1437 Rocket - Pass Details

Date: 15 May 2026
Orbit: 439 x 476 km, 81.2° (Epoch: 8 June)

Event Time Altitude Azimuth Distance (km) Brightness Sun altitude
Exits shadow 21:37:34 - 185° (S) 2,127 5.4 -8.9°
Reaches altitude 10° 21:38:46 10° 184° (S) 1,624 4.8 -9.0°
Maximum altitude 21:42:18 70° 101° (ESE) 508 2.5 -9.3°
Drops below altitude 10° 21:45:55 10° 17° (NNE) 1,657 5.8 -9.7°
Sets 21:48:02 0° 16° (NNE) 2,544 6.8 -9.9°
